sat.trackr.live / text

‹ back to catalog

ICEYE-X6

NORAD 46497 · 2020-068M

PAYLOAD ACTIVE UNKNOWN

§ Identity

Operator
Country
FIN
Launch date
2020-09-28
Launch site
PLMSC
Launch vehicle
Mass (kg)
RCS (m²)

External: N2YO · Heavens-Above · Gunter

§ Orbital elements

Epoch: 2026-05-25T05:53:07.848672Z

Period
95.72 min
Inclination
98.0979°
Eccentricity
0.0007808
Mean motion
15.04381750 rev/d
Perigee alt
548.0 km
Apogee alt
558.8 km
Semi-major
6,931.5 km
B*
1.9458e-4
RAAN
137.8242°
Arg perigee
154.2990°
Mean anomaly
205.8624°
Rev number
30,978

§ Raw data

ICEYE-X61 46497U 20068M   26145.24522973  .00002649  00000+0  19458-3 0  99982 46497  98.0979 137.8242 0007808 154.2990 205.8624 15.04381750309782

JSON: /api/v1/satellites/46497 · /tle

For live sub-satellite position, see the globe view (requires WebGL).

§ Visibility from observer

Set your observer location to see the next 7 days of passes ≥ 10°. The values pass through the URL so the page stays shareable.

No JS? Fill the form by hand. The geolocation button needs JavaScript.

§ Radio — SatNOGS DB

ModeDescriptionDownlinkUplink
FM S-band telemetry 2.264 GHz

1 transmitter · refreshed weekly from db.satnogs.org